Location: Unspecified
(0.0000°N, 0.0000°E)
Time: 14:27:21
(UTC+00:00)

Transit 2A Rocket - All Passes

Search period start: 23 April 2014 00:00
Search period end: 03 May 2014 00:00
Orbit: 594 x 916 km, 66.7° (Epoch: 22 April)

Date Brightness Start Highest point End Pass type
(mag) Time Alt. Az. Time Alt. Az. Time Alt. Az.
23 Apr - 01:14:29 10° NW 01:18:15 29° WSW 01:22:13 10° S night (unlit)
23 Apr - 12:01:19 10° S 12:07:06 45° ESE 12:12:37 10° NE daylight
23 Apr - 13:46:19 10° WSW 13:49:28 15° WNW 13:52:33 10° NW daylight
24 Apr - 00:32:27 10° NNW 00:36:44 69° WSW 00:41:17 10° SSE night (unlit)
24 Apr - 11:20:48 10° SSE 11:25:32 24° ESE 11:30:07 10° ENE daylight
24 Apr - 13:02:54 10° SW 13:08:00 29° WNW 13:12:54 10° NNW daylight
24 Apr - 23:51:06 10° N 23:55:16 48° ENE 23:59:39 10° SE night (unlit)
25 Apr - 10:41:52 10° SE 10:43:56 12° ESE 10:45:58 10° E daylight
25 Apr - 12:20:37 10° SSW 12:26:33 56° WNW 12:32:09 10° N daylight
25 Apr - 23:10:33 10° NNE 23:13:50 21° ENE 23:17:13 10° ESE night (unlit)
26 Apr - 00:53:31 10° WNW 00:56:11 16° WSW 00:58:56 10° SSW night (unlit)
26 Apr - 11:38:58 10° SSW 11:45:03 76° ESE 11:50:48 10° NNE daylight
27 Apr - 00:10:39 10° NW 00:14:37 35° WSW 00:18:49 10° S night (unlit)
27 Apr - 10:57:54 10° S 11:03:31 39° ESE 11:08:52 10° NE daylight
27 Apr - 12:42:12 10° WSW 12:45:54 17° WNW 12:49:29 10° NNW daylight
27 Apr - 23:28:46 10° NNW 23:33:06 84° WSW 23:37:43 10° SSE night (unlit)
28 Apr - 10:17:34 10° SSE 10:21:56 21° ESE 10:26:09 10° ENE daylight
28 Apr - 11:59:06 10° SW 12:04:26 33° WNW 12:09:30 10° N daylight
28 Apr - 22:47:34 10° N 22:51:38 40° ENE 22:55:56 10° SE night (unlit)
29 Apr - 11:16:58 10° SSW 11:22:58 65° WNW 11:28:37 10° N daylight
29 Apr - 22:07:15 10° NNE 22:10:12 18° ENE 22:13:15 10° ESE night (unlit)
29 Apr - 23:49:25 10° WNW 23:52:31 19° WSW 23:55:46 10° SSW night (unlit)
30 Apr - 10:35:26 10° SSW 10:41:27 66° ESE 10:47:08 10° NNE daylight
30 Apr - 23:06:50 10° NW 23:10:57 42° WSW 23:15:21 10° S night (unlit)
01 May - 09:54:29 10° S 09:59:54 34° ESE 10:05:04 10° NE daylight
01 May - 11:38:10 10° WSW 11:42:18 20° WNW 11:46:17 10° NNW daylight
01 May - 22:25:07 10° NNW 22:29:27 82° ENE 22:34:05 10° SSE night (unlit)
02 May - 09:14:24 10° SSE 09:18:18 18° ESE 09:22:06 10° ENE daylight
02 May - 10:55:20 10° SW 11:00:50 38° WNW 11:06:03 10° N daylight
02 May - 21:44:03 10° N 21:48:00 34° ENE 21:52:09 10° SE night (unlit)
